{"data":{"norad_id":56029,"epoch":"2026-05-24T21:31:46.650144Z","epoch_age_seconds":74039,"freshness":"FRESH","line1":"1 56029U 23042AV  26144.89706771 -.00000759  00000+0 -18058-4 0  9993","line2":"2 56029  43.0036 334.5679 0001034 261.5442  98.5293 15.27565320174698","mean_motion":15.2756532,"eccentricity":0.0001034,"inclination_deg":43.0036,"raan_deg":334.5679,"arg_perigee_deg":261.5442,"mean_anomaly_deg":98.5293,"bstar":-1.8058e-5,"rev_number":17469,"period_min":94.26765462311,"perigee_km":482.38360240524,"apogee_km":483.80250478032,"semimajor_km":6861.2300535928,"source":"CELESTRAK","updated_at":"2026-05-25T13:38:17.950336Z"}}